sat.trackr.live / text

‹ back to catalog

QIANFAN-14

NORAD 60392 · 2024-140P

PAYLOAD ACTIVE UNKNOWN

§ Identity

Operator
Country
PRC
Launch date
2024-08-06
Launch site
TAISC
Launch vehicle
Mass (kg)
RCS (m²)

External: N2YO · Heavens-Above · Gunter

§ Orbital elements

Epoch: 2026-05-25T03:01:17.710752Z

Period
106.59 min
Inclination
88.9688°
Eccentricity
0.0018709
Mean motion
13.51009334 rev/d
Perigee alt
1,054.6 km
Apogee alt
1,082.5 km
Semi-major
7,446.7 km
B*
9.7831e-5
RAAN
282.3131°
Arg perigee
97.3130°
Mean anomaly
263.0148°
Rev number
8,933

§ Raw data

QIANFAN-141 60392U 24140P   26145.12589943  .00000075  00000+0  97831-4 0  99932 60392  88.9688 282.3131 0018709  97.3130 263.0148 13.51009334 89333

JSON: /api/v1/satellites/60392 · /tle

For live sub-satellite position, see the globe view (requires WebGL).

§ Visibility from observer

Set your observer location to see the next 7 days of passes ≥ 10°. The values pass through the URL so the page stays shareable.

No JS? Fill the form by hand. The geolocation button needs JavaScript.